STARLINK-5550, 56361

Orbit data source: Space-Track

STARLINK-5550, 56361 is a payload satellite owned by SpaceX/Seattle (US) in SSO that was launched on Thu, 27 Apr 2023 UTC via an FALCON 9 launch vehicle from the Air Force Western Test Range (AFWTR). Payload-class satellites include a variety of spacecraft equipped with specific instruments for various scientific and technological missions. These include communications satellites like Starlink; space stations such as the ISS; scientific satellites like the Hubble; Earth observation satellites from companies like Planet Labs, Umbra, and HawkEye 360; GPS; miniature CubeSats for education and research; and military/defense satellites.

Loading next visibility...
Identifier
56361, 2023-058AW
Orbit
SSO
Country
Flag of USUS
Related business
Manufacturer
SpaceX/Seattle
Mission
Operational Commercial Communications
Bus & Motor
STARLINK, Unknown motor
Mass
300 kg wet, ~260 kg dry
Launch date (UTC)
2023-04-27 (3 years ago)
Launch vehicle
FALCON 9
Launch site
Air Force Western Test Range (AFWTR)
Object type
Payload
Rocket body
Debris
Shape & HBR
Box + 1 Pan, 10.1 m
Radar Cross Section
11.087 m², Large (>1 m²)

Expand to show TLE details & history
Last TLE update: 2 days ago

TLE from 2 days ago
0 STARLINK-5550
1 56361U 23058AW  26171.42102392  .00000616  00000-0  46603-4 0  9995
2 56361  97.3350 170.3058 0002211 104.6977 255.4496 15.05654450173588
Epoch: 2026-06-20T10:06Z
TLE epoch observation values (Epoch: 2026-06-20T10:06:16.466Z)
Latitude
-0.00001°
Longitude
110.1013°
Altitude
552.956 km
Speed
7.585 km/s
True Right ascension
11h 21m 13s
True Declination
0° 00' 00"
Sunlit
Object was in daylight at epoch
Visualization orbit readout
Latitude
Unknown
Longitude
Unknown
Altitude
Unknown
Speed
Unknown
Apparent Right ascension
Unknown
Apparent Declination
Unknown
Sunlit
N/A
Visualization observer readout
Local Sidereal Time
21:31:08
Azimuth
Unknown
Elevation
Unknown
Doppler factor
Unknown
Orbital elements
Apogee altitude
548.011 km
Perigee altitude
544.948 km
Semi-major axis
6,924.616 km
Eccentricity
0.00022
Inclination
97.335°
RAAN
170.3058°
Arg. of periapsis
104.6977°
True anomaly
255.42508°
Mean anomaly
255.4496°
Eccentric anomaly
255.43734°
Mean motion
3.7666 °/min
Orbital period
95.58 mins
BSTAR
0.000046603
Loading maneuver chart data...
Computing Atmospheric mass density...
Loading historical data...
Loading historical data...
Loading historical data...
Loading historical data...
Loading historical data...
Loading historical data...
Loading historical data...

Documentation

Showing up to 5 results
|